This is the latest recevied weather packets stored in our database for station/object IW9CSJ-13. If no packets are shown the sender has not sent any weather packets the latest 10 day(s).
| Time | Temp. | Humidity | Pressure | Rain* | Wind** | Luminosity | Snow |
|---|---|---|---|---|---|---|---|
| 1777828525 | 16.11° C | 56% | 1017.9 hPa | 0 mm | - | - | - |
| 1777828238 | 16.11° C | 56% | 1017.8 hPa | 0 mm | - | - | - |
| 1777827027 | 16.11° C | 56% | 1017.8 hPa | 0 mm | - | - | - |
| 1777824920 | 16.67° C | 57% | 1017.4 hPa | 0 mm | - | - | - |
| 1777820440 | 17.22° C | 60% | 1017.4 hPa | 0 mm | - | - | - |
| 1777818924 | 17.22° C | 61% | 1017.5 hPa | 0 mm | - | - | - |
| 1777818325 | 17.78° C | 60% | 1017.7 hPa | 0 mm | - | - | - |
| 1777815642 | 18.33° C | 57% | 1017.9 hPa | 0 mm | - | - | - |
| 1777813818 | 18.33° C | 58% | 1018 hPa | 0 mm | - | - | - |
| 1777813224 | 18.89° C | 56% | 1018.1 hPa | 0 mm | - | - | - |
| 1777812926 | 18.33° C | 56% | 1018.2 hPa | 0 mm | - | - | - |
| 1777808137 | 18.33° C | 54% | 1018.9 hPa | 0 mm | - | - | - |
| 1777806922 | 18.89° C | 55% | 1018.7 hPa | 0 mm | - | - | - |
| 1777806025 | 18.89° C | 57% | 1018.7 hPa | 0 mm | - | - | - |
| 1777802119 | 18.33° C | 57% | 1019 hPa | 0 mm | - | - | - |
| 1777801536 | 18.33° C | 56% | 1019 hPa | 0 mm | - | - | - |
| 1777800924 | 18.33° C | 57% | 1019.1 hPa | 0 mm | - | - | - |
| 1777800616 | 18.33° C | 57% | 1018.9 hPa | 0 mm | - | - | - |
| 1777796723 | 17.78° C | 59% | 1018.7 hPa | 0 mm | - | - | - |
| 1777794939 | 17.22° C | 60% | 1018.7 hPa | 0 mm | - | - | - |
| 1777794324 | 17.22° C | 60% | 1018.7 hPa | 0 mm | - | - | - |
| 1777792220 | 16.67° C | 62% | 1018.9 hPa | 0 mm | - | - | - |
| 1777791016 | 16.11° C | 62% | 1019.1 hPa | 0 mm | - | - | - |
| 1777789816 | 15.56° C | 63% | 1019.1 hPa | 0 mm | - | - | - |
| 1777787716 | 15° C | 65% | 1019.1 hPa | 0 mm | - | - | - |
* Rain latest hour (hover to see other rain measurements)
** Current wind speed in m/s (hover to see current wind gust speed)